Regional Weather Roundup
Issued by NWS State College, PA

Home | Current Version | Previous Version | Text Only | Print | Product List | Glossary On
Versions: 1 2 3 4 5 6 7 8 9 10 11 12 13 14 15 16 17 18 19 20 21 22 23 24 25 26 27 28 29 30 31 32 33 34 35 36 37 38 39 40 41 42 43 44 45 46 47 48 49 50
000
ASUS41 KCTP 101903
RWRCTP

REGIONAL WEATHER ROUNDUP
NATIONAL WEATHER SERVICE STATE COLLEGE PA
300 PM EDT THU JUL 10 2014

Note: "fair" indicates few or no clouds below 12,000 feet with no
significant weather and/or obstructions to visibility.

* = STATION THAT DOES NOT REPORT PRECIPITATION /E.G. RAIN...SNOW...ETC/
    THUNDER OR FOG.

PAZ002>004-007>009-013>016-020>023-029>032-102000-
WESTERN PENNSYLVANIA

CITY           SKY/WX    TMP DP  RH WIND       PRES   REMARKS
ERIE           SUNNY     74  55  51 NE14      30.16S
MEADVILLE      MOSUNNY   75  53  46 SW3       30.16F
FRANKLIN*      PTSUNNY   73  54  49 CALM      30.17S
NEW CASTLE     NOT AVBL
BEAVER COUNTY  PTSUNNY   79  55  44 E3        30.14F
BUTLER*        MOSUNNY   79  59  50 N5        30.15F
PITTSBURGH INT PTSUNNY   79  57  46 CALM      30.12F
PITTSBURGH     MOSUNNY   80  55  42 VRB6      30.11F
INDIANA*       PTSUNNY   77  59  53 N7        30.17F
LATROBE        PTSUNNY   79  63  57 N7        30.12F
WASHINGTON CO* SUNNY     81  57  44 N3        30.12F
$$

PAZ004>006-010>012-017>019-024>028-033>037-041-042-045-046-049>053-102000-
CENTRAL PENNSYLVANIA

CITY           SKY/WX    TMP DP  RH WIND       PRES   REMARKS
BRADFORD       MOSUNNY   74  51  44 VRB6      30.18F
DUBOIS         PTSUNNY   77  57  50 W8        30.15F
CLEARFIELD     PTSUNNY   76  60  57 MISG      30.14F
JOHNSTOWN      PTSUNNY   76  57  51 W6        30.15F
ALTOONA        CLOUDY    78  61  55 S5        30.13F
STATE COLLEGE  CLOUDY    75  63  64 NE7       30.13F
WILLIAMSPORT   CLOUDY    78  57  48 SE3       30.11S
SELINSGROVE    FAIR      81  64  56 N7        30.10F
FT INDIANTOWN  MOSUNNY   84  61  45 VRB5      30.09F
CAPITAL CITY   MOSUNNY   83  59  44 MISG      30.07F
HARRISBURG     MOSUNNY   87  61  41 S3        30.07F
YORK           PTSUNNY   82  59  45 CALM      30.07F
$$

PAZ038>040-043-044-047-048-054-055-060>062-067>071-102000-
EASTERN PENNSYLVANIA

CITY           SKY/WX    TMP DP  RH WIND       PRES   REMARKS
SCRANTON       MOSUNNY   79  58  48 NW8       30.13F
MOUNT POCONO   LGT RAIN  71  59  65 E3        30.16F
ALLENTOWN      MOSUNNY   82  63  52 VRB5      30.09F
QUAKERTOWN*    MOCLDY    82  63  51 NE5       30.11F
READING        MOSUNNY   82  60  47 NE3       30.07F
LANCASTER      SUNNY     83  59  44 VRB3      30.08F
COATESVILLE    PTCLDY    82  59  44 E6        30.10F
POTTSTOWN      MOSUNNY   83  60  45 NE7       30.09F
BLUE BELL      MOSUNNY   81  63  54 CALM      30.08F
DOYLESTOWN     MOSUNNY   80  65  59 S5        30.09F
WILLOW GROVE   NOT AVBL
NORTH PHILA    MOSUNNY   85  60  42 NE7       30.09F
PHILADELPHIA   MOSUNNY   85  62  46 E12       30.07F
$$


USA.gov is the U.S. government's official web portal to all federal, state and local government web resources and services.